TimeEST,TemperatureF,Dew PointF,Humidity,Sea Level PressureIn,VisibilityMPH,Wind Direction,Wind SpeedMPH,Gust SpeedMPH,PrecipitationIn,Events,Conditions,WindDirDegrees,DateUTC
12:23 AM,30.2,24.8,80,30.32,8.0,West,9.2,-,N/A,,Overcast,270,2013-01-07 05:23:00
12:54 AM,28.9,25.0,85,30.35,8.0,West,9.2,-,N/A,,Mostly Cloudy,270,2013-01-07 05:54:00
1:54 AM,28.9,25.0,85,30.36,10.0,WSW,6.9,-,N/A,,Mostly Cloudy,240,2013-01-07 06:54:00
2:54 AM,28.9,25.0,85,30.38,7.0,West,6.9,-,N/A,,Mostly Cloudy,260,2013-01-07 07:54:00
3:54 AM,27.0,23.0,85,30.39,7.0,WSW,8.1,-,N/A,,Mostly Cloudy,250,2013-01-07 08:54:00
4:54 AM,24.1,21.9,91,30.41,5.0,WSW,4.6,-,N/A,,Mostly Cloudy,240,2013-01-07 09:54:00
5:13 AM,23.0,21.2,93,30.37,6.0,WSW,3.5,-,N/A,,Scattered Clouds,240,2013-01-07 10:13:00
5:54 AM,19.4,17.6,93,30.37,4.0,SSW,5.8,-,N/A,,Partly Cloudy,210,2013-01-07 10:54:00
6:54 AM,17.1,16.0,96,30.44,3.0,SW,8.1,-,N/A,,Partly Cloudy,220,2013-01-07 11:54:00
7:32 AM,15.8,15.8,100,30.41,2.5,SW,6.9,-,N/A,,Partly Cloudy,220,2013-01-07 12:32:00
7:54 AM,15.1,14.0,95,30.45,3.0,SW,6.9,-,N/A,,Clear,220,2013-01-07 12:54:00
8:12 AM,15.8,14.0,93,30.41,2.0,SSW,6.9,-,N/A,,Partly Cloudy,210,2013-01-07 13:12:00
8:54 AM,17.1,16.0,96,30.45,2.5,SSW,5.8,-,N/A,,Partly Cloudy,200,2013-01-07 13:54:00
9:54 AM,19.9,19.0,96,30.45,3.0,South,6.9,-,N/A,,Partly Cloudy,190,2013-01-07 14:54:00
10:54 AM,23.0,21.0,92,30.45,8.0,SSW,8.1,-,N/A,,Partly Cloudy,200,2013-01-07 15:54:00
11:54 AM,27.0,23.0,85,30.43,10.0,SSW,9.2,-,N/A,,Partly Cloudy,210,2013-01-07 16:54:00
12:54 PM,30.0,24.1,79,30.37,10.0,SSW,10.4,-,N/A,,Partly Cloudy,200,2013-01-07 17:54:00
1:54 PM,32.0,24.8,75,30.31,10.0,SSW,15.0,-,N/A,,Clear,210,2013-01-07 18:54:00
2:54 PM,33.1,25.0,72,30.32,10.0,SSW,17.3,-,N/A,,Partly Cloudy,200,2013-01-07 19:54:00
3:54 PM,33.1,25.0,72,30.31,10.0,SSW,15.0,-,N/A,,Partly Cloudy,200,2013-01-07 20:54:00
4:54 PM,30.9,24.1,76,30.30,10.0,SSW,11.5,-,N/A,,Partly Cloudy,210,2013-01-07 21:54:00
5:54 PM,28.4,21.2,74,30.26,10.0,South,11.5,-,N/A,,Partly Cloudy,190,2013-01-07 22:54:00
6:54 PM,28.0,21.0,75,30.28,10.0,South,12.7,-,N/A,,Partly Cloudy,190,2013-01-07 23:54:00
7:54 PM,28.0,21.9,78,30.27,8.0,South,10.4,-,N/A,,Clear,190,2013-01-08 00:54:00
8:54 PM,24.1,19.9,84,30.26,10.0,South,10.4,-,N/A,,Partly Cloudy,190,2013-01-08 01:54:00
9:54 PM,23.0,19.9,88,30.25,10.0,South,8.1,-,N/A,,Partly Cloudy,180,2013-01-08 02:54:00
10:54 PM,21.0,18.0,88,30.25,8.0,South,4.6,-,N/A,,Scattered Clouds,190,2013-01-08 03:54:00
11:54 PM,24.1,21.0,88,30.22,8.0,South,10.4,-,N/A,,Mostly Cloudy,190,2013-01-08 04:54:00